This demonstration page uses our WeatherBlox Daily Observations layout. Learn more.

Left ArrowRight Arrow

34.74481, -87.66753

Hourly Observations for April 2, 2017

Temp ( °F °C ) Dew Point ( °F °C ) Humidity (%) Winds ( mph kmh ) Pressure ( in mb ) Visibility ( mi km ) Precip ( " mm )
12:53 am 00:53 Clear 54 12.2 45 7.2 72 72 NE 3 6 30.11 1020 10 16 0.00 0.00
1:53 am 01:53 Clear 52 11.1 44 6.7 75 75 NE 5 7 30.09 1019 10 16 0.00 0.00
2:53 am 02:53 Clear 52 11.1 43 6.1 72 72 NE 6 9 30.07 1018 10 16 0.00 0.00
3:53 am 03:53 Clear 51 10.6 43 6.1 74 74 Calm 30.07 1018 10 16 0.00 0.00
4:53 am 04:53 Clear 49 9.4 42 5.6 77 77 Calm 30.07 1018 10 16 0.00 0.00
5:53 am 05:53 Clear 49 9.4 43 6.1 80 80 NNE 3 6 30.09 1019 10 16 0.00 0.00
6:53 am 06:53 Sunny 49 9.4 43 6.1 80 80 NE 5 7 30.11 1020 10 16 0.00 0.00
7:53 am 07:53 Sunny 51 10.6 44 6.7 77 77 E 5 7 30.12 1020 10 16 0.00 0.00
8:53 am 08:53 Sunny 56 13.3 46 7.8 70 70 E 7 11 30.12 1020 10 16 0.00 0.00
9:53 am 09:53 Sunny 61 16.1 48 8.9 63 63 VRB 5 7 30.12 1020 10 16 0.00 0.00
10:53 am 10:53 Sunny 67 19.4 50 10 55 55 SE 5 7 30.09 1019 10 16 0.00 0.00
11:53 am 11:53 Sunny 71 21.7 51 10.6 49 49 ESE 7 11 30.04 1017 10 16 0.00 0.00
12:53 pm 12:53 Sunny 75 23.9 52 11.1 45 45 E 9 15 30.00 1016 10 16 0.00 0.00
1:53 pm 13:53 Sunny 77 25 52 11.1 42 42 ESE 8 13 29.97 1015 10 16 0.00 0.00
2:53 pm 14:53 Sunny 79 26.1 52 11.1 39 39 ESE 9 15 29.94 1014 10 16 0.00 0.00
3:53 pm 15:53 Sunny 79 26.1 53 11.7 41 41 ESE 9 15 29.91 1013 10 16 0.00 0.00
4:53 pm 16:53 Sunny 78 25.6 51 10.6 39 39 E 9 15 29.83 1010 10 16 0.00 0.00
5:53 pm 17:53 Sunny 78 25.6 49 9.4 36 36 SE 8 13 29.83 1010 10 16 0.00 0.00
6:53 pm 18:53 Sunny 72 22.2 52 11.1 50 50 SE 5 7 29.84 1011 10 16 0.00 0.00
7:53 pm 19:53 Clear 73 22.8 51 10.6 46 46 S 3 6 29.87 1011 10 16 0.00 0.00
8:53 pm 20:53 Partly Cloudy 68 20 53 11.7 59 59 SE 3 6 29.90 1012 10 16 0.00 0.00
9:53 pm 21:53 Cloudy 70 21.1 54 12.2 57 57 W 12 19 29.95 1014 10 16 0.00 0.03
10:53 pm 22:53 Partly Cloudy 64 17.8 59 15 84 84 W 12 19 29.90 1013 10 16 0.02 0.51
11:12 pm 23:12 Mostly Cloudy with Nearby Thunderstorms 64 17.8 59 15 84 84 W 10 17 29.88 1012 10 16 0.00 0.03
11:27 pm 23:27 Cloudy with Light Rain 63 17.2 59 15 87 87 WSW 5 7 29.88 1012 10 16 0.00 0.03
11:53 pm 23:53 Cloudy with Light Rain 63 17.2 59 15 87 87 W 10 17 29.89 1012 10 16 0.01 0.25

Powered by AerisWeather